WETTERDATEN

GESTERN
Time Temp. Taup. r.Fe. Windrich Windstärke Windböe Druck 1h Prec. 24h Prec.
00:05 20.1 11.3 57 270 0.3 1.1 1010.9 0.0000 0.0000
00:16 19.9 11.4 58 270 0.3 1.1 1010.8 0.0000 0.0000
00:26 19.8 11.3 58 270 0.3 1.1 1010.9 0.0000 0.0000
00:36 19.6 11.1 58 270 0.3 1.4 1010.9 0.0000 0.0000
00:46 19.4 10.9 58 270 0.3 1.4 1010.8 0.0000 0.0000
00:56 19.3 11.1 59 270 0.3 1.1 1010.9 0.0000 0.0000
01:06 19.3 11.1 59 270 0.3 1.1 1010.8 0.0000 0.0000
01:16 19.2 11 59 236 0.3 1.1 1010.8 0.0000 0.0000
01:27 19.1 11.2 60 270 0.3 0.8 1010.7 0.0000 0.0000
01:36 19 11.1 60 270 0.3 1.1 1010.7 0.0000 0.0000
01:46 18.9 11 60 270 0.3 1.1 1010.7 0.0000 0.0000
01:56 18.9 11 60 270 0.3 1.1 1010.6 0.0000 0.0000
02:07 18.8 10.9 60 270 0.3 1.4 1010.8 0.0000 0.0000
02:17 18.6 10.7 60 239 0.3 0.8 1010.6 0.0000 0.0000
02:26 18.4 10.8 61 40 0.8 1.4 1010.6 0.0000 0.0000
02:37 18.1 10.5 61 45 0.8 1.4 1010.6 0.0000 0.0000
02:47 18.1 10.2 60 57 0.8 1.9 1010.5 0.0000 0.0000
02:57 17.8 9.9 60 52 0.8 1.9 1010.5 0.0000 0.0000
03:07 17.6 10 61 53 0.8 1.4 1010.5 0.0000 0.0000
03:17 17.5 10.1 62 53 0.8 1.4 1010.3 0.0000 0.0000
03:27 17.4 10.1 62 53 0.3 1.4 1010.4 0.0000 0.0000
03:37 17.4 10.3 63 90 0.3 1.1 1010.4 0.0000 0.0000
03:48 17.4 10.3 63 60 0.8 1.1 1010.1 0.0000 0.0000
03:57 17.3 10.2 63 50 0.3 1.1 1010.2 0.0000 0.0000
04:07 17.2 10.1 63 51 0.8 1.4 1010.2 0.0000 0.0000
04:17 17.1 10 63 51 0.8 1.9 1010 0.0000 0.0000
04:28 17 9.9 63 60 0.3 1.1 1010.1 0.0000 0.0000
04:38 16.8 9.7 63 55 0.3 1.1 1010.1 0.0000 0.0000
04:47 16.8 10 64 53 0.8 1.4 1010.1 0.0000 0.0000
04:58 16.7 9.9 64 54 0.8 1.4 1010.2 0.0000 0.0000
05:08 16.6 9.5 63 60 0.8 1.4 1010.1 0.0000 0.0000
05:18 16.4 9.3 63 90 0.3 1.4 1010.1 0.0000 0.0000
05:23 16.4 9.6 64 59 0.8 1.4 1010.3 0.0000 0.0000
05:33 16.3 9.5 64 48 0.8 1.1 1010.1 0.0000 0.0000
05:43 16.2 9.4 64 59 0.8 1.1 1010 0.0000 0.0000
05:53 16.1 9.3 64 62 0.8 1.4 1010.1 0.0000 0.0000
06:03 16 9.2 64 61 0.8 1.4 1010 0.0000 0.0000
06:13 15.9 9.3 65 59 0.8 1.4 1010.1 0.0000 0.0000
06:23 15.9 9.3 65 59 0.8 1.4 1010.2 0.0000 0.0000
06:33 15.9 9.3 65 51 0.3 1.4 1010 0.0000 0.0000
06:44 15.9 9.3 65 55 0.8 1.4 1010 0.0000 0.0000
06:54 15.8 9.2 65 53 0.8 1.9 1009.9 0.0000 0.0000
07:03 15.9 9.3 65 53 0.8 1.4 1009.9 0.0000 0.0000
07:13 16 9.7 66 55 0.8 1.4 1010.1 0.0000 0.0000
07:24 16.2 9.8 66 90 0.3 1.1 1010.1 0.0000 0.0000
07:34 16.3 9.9 66 60 0.3 1.1 1010.1 0.0000 0.0000
07:44 16.4 10.3 67 61 0.8 1.4 1010.1 0.0000 0.0000
07:54 16.5 10.4 67 51 0.8 1.4 1009.9 0.0000 0.0000
08:04 16.7 10.5 67 55 0.8 1.9 1009.9 0.0000 0.0000
08:14 16.9 10.5 66 58 0.8 1.9 1009.9 0.0000 0.0000
08:24 17.1 10.7 66 58 0.8 1.9 1009.9 0.0000 0.0000
08:34 17.3 10.9 66 52 0.8 1.9 1010 0.0000 0.0000
08:44 17.5 11.1 66 53 0.8 1.4 1009.9 0.0000 0.0000
08:54 17.8 11.1 65 53 1.1 2.2 1010.1 0.0000 0.0000
09:04 18.1 11.4 65 50 0.8 1.9 1009.9 0.0000 0.0000
09:15 18.3 11.4 64 48 0.8 1.9 1009.7 0.0000 0.0000
09:24 18.6 11.7 64 53 1.1 2.5 1009.7 0.0000 0.0000
09:34 18.9 11.7 63 45 0.8 1.9 1009.8 0.0000 0.0000
09:45 19.2 11.8 62 45 0.8 1.4 1009.8 0.0000 0.0000
09:55 19.5 11.8 61 39 0.8 1.9 1009.8 0.0000 0.0000
10:05 19.9 11.9 60 52 0.8 1.9 1009.6 0.0000 0.0000
10:15 20.2 12.2 60 54 0.3 1.4 1009.7 0.0000 0.0000
10:25 20.5 11.7 57 40 0.8 1.4 1009.5 0.0000 0.0000
10:35 20.9 12.1 57 45 0.8 1.9 1009.5 0.0000 0.0000
10:45 21.2 12.1 56 48 0.8 1.9 1009.5 0.0000 0.0000
10:56 21.5 12.4 56 45 0.3 1.9 1009.4 0.0000 0.0000
11:05 21.6 12.2 55 45 0.8 1.9 1009.4 0.0000 0.0000
11:15 21.6 11.9 54 38 0.8 2.2 1009.4 0.0000 0.0000
11:25 21.6 11.6 53 59 1.1 1.9 1009.2 0.0000 0.0000
11:36 21.6 11.3 52 29 0.8 2.2 1009.3 0.0000 0.0000
11:45 21.7 11.7 53 55 0.8 2.2 1009.2 0.0000 0.0000
11:55 21.8 11.8 53 53 0.8 1.9 1009 0.0000 0.0000
12:06 22.1 12.1 53 56 0.8 2.2 1009 0.0000 0.0000
12:16 22.3 12 52 49 0.8 1.9 1008.9 0.0000 0.0000
12:26 22.6 12.3 52 55 0.8 2.2 1008.7 0.0000 0.0000
12:36 22.8 12.1 51 62 0.8 1.9 1008.8 0.0000 0.0000
12:46 23 12.3 51 54 0.8 2.2 1008.6 0.0000 0.0000
12:56 23.2 12.8 52 49 0.8 1.9 1008.6 0.0000 0.0000
13:06 23.5 12.5 50 45 1.1 2.5 1008.6 0.0000 0.0000
13:17 23.8 12.8 50 231 0.8 2.5 1008.7 0.0000 0.0000
13:26 24 12.6 49 315 0.3 1.1 1008.3 0.0000 0.0000
13:36 24.2 12.8 49 60 0.8 1.9 1008.5 0.0000 0.0000
13:46 24.4 13 49 56 0.3 2.2 1008.3 0.0000 0.0000
13:57 24.3 12.3 47 52 0.8 1.9 1008.1 0.0000 0.0000
14:06 24.2 12.5 48 63 0.8 1.9 1008.1 0.0000 0.0000
14:16 24.3 12.3 47 45 0.8 2.2 1008 0.0000 0.0000
14:27 24.4 12.4 47 45 0.8 1.9 1008.1 0.0000 0.0000
14:37 24.5 11.8 45 70 0.8 2.5 1007.9 0.0000 0.0000
14:47 24.5 11.8 45 57 0.8 2.5 1007.9 0.0000 0.0000
14:56 24.7 12 45 315 0.3 2.2 1007.8 0.0000 0.0000
15:07 24.8 12.4 46 45 0.8 1.9 1007.8 0.0000 0.0000
15:17 24.8 11.7 44 53 0.3 1.4 1007.7 0.0000 0.0000
15:27 25 12.3 45 50 0.3 1.4 1007.6 0.0000 0.0000
15:37 25.2 12.1 44 225 0.3 1.1 1007.4 0.0000 0.0000
15:47 25.4 11.9 43 48 0.3 1.4 1007.3 0.0000 0.0000
15:57 25.6 12.1 43 45 0.3 1.4 1007.4 0.0000 0.0000
16:07 25.5 11.3 41 90 0.3 1.4 1007.1 0.0000 0.0000
16:18 25.2 11.4 42 48 0.8 1.9 1007.1 0.0000 0.0000
16:27 25.1 11.3 42 50 0.8 1.4 1007.1 0.0000 0.0000
16:37 24.9 11.1 42 58 0.8 1.9 1007.2 0.0000 0.0000
16:48 24.7 11.3 43 53 0.8 1.9 1006.9 0.0000 0.0000
16:58 24.7 10.2 40 51 0.8 1.9 1006.9 0.0000 0.0000
17:08 24.8 11.4 43 26 0.3 1.1 1006.8 0.0000 0.0000
17:17 24.9 11.5 43 68 0.8 2.2 1006.9 0.0000 0.0000
17:28 24.8 11.7 44 45 0.8 3.1 1006.8 0.0000 0.0000
17:38 24.6 11.2 43 36 0.8 1.9 1007 0.0000 0.0000
17:48 24.5 11.5 44 61 1.1 2.2 1006.8 0.0000 0.0000
17:58 24.4 11.4 44 54 1.1 2.5 1006.9 0.0000 0.0000
18:08 24.3 11.6 45 52 0.8 2.2 1006.9 0.0000 0.0000
18:18 24.2 11.5 45 52 1.1 2.5 1006.8 0.0000 0.0000
18:28 24.2 11.5 45 51 0.8 1.9 1006.8 0.0000 0.0000
18:39 24 11 44 58 1.1 2.2 1006.9 0.0000 0.0000
18:48 23.9 10.6 43 62 1.1 1.9 1006.8 0.0000 0.0000
18:58 23.8 11.2 45 53 0.8 1.9 1006.9 0.0000 0.0000
19:09 23.8 10.8 44 59 1.1 2.2 1006.9 0.0000 0.0000
19:19 23.6 11 45 55 1.1 2.5 1007 0.0000 0.0000
19:29 23.6 11 45 55 1.1 3.3 1007.1 0.0000 0.0000
19:38 23.5 10.9 45 57 1.1 2.5 1007.1 0.0000 0.0000
19:49 23.4 11.1 46 52 1.1 2.2 1007.2 0.0000 0.0000
19:59 23.3 11 46 47 1.1 2.2 1007.4 0.0000 0.0000
20:09 23.1 12.1 50 30 1.1 2.5 1007.5 0.0000 0.0000
20:19 22.9 12.2 51 51 1.1 2.5 1007.6 0.0000 0.0000
20:29 22.8 12.4 52 51 1.1 3.1 1007.7 0.0000 0.0000
20:39 22.7 12.3 52 51 1.1 3.1 1007.8 0.0000 0.0000
20:49 22.6 12.3 52 53 1.1 3.1 1007.8 0.0000 0.0000
21:00 22.4 12.4 53 56 1.1 2.2 1007.9 0.0000 0.0000
21:09 22.1 12.1 53 63 1.4 3.6 1008.1 0.0000 0.0000
21:19 21.9 11.9 53 66 1.1 2.5 1008.3 0.0000 0.0000
21:29 21.6 11.6 53 67 1.1 2.2 1008.3 0.0000 0.0000
21:40 21.4 11.4 53 65 1.1 3.1 1008.5 0.0000 0.0000
21:50 21.3 11.3 53 61 1.1 3.1 1008.7 0.0000 0.0000
21:59 21.1 11.4 54 60 1.1 2.2 1008.8 0.0000 0.0000
22:10 21 11.3 54 62 1.1 2.5 1008.7 0.0000 0.0000
22:20 20.9 11.5 55 61 1.1 3.3 1008.8 0.0000 0.0000
22:30 20.8 11.4 55 53 0.8 2.2 1008.9 0.0000 0.0000
22:40 20.8 11.7 56 53 0.8 1.9 1008.9 0.0000 0.0000
22:50 20.7 11.6 56 54 0.8 2.2 1009.1 0.0000 0.0000
23:00 20.6 11.5 56 58 1.1 2.5 1009.2 0.0000 0.0000
23:10 20.5 11.7 57 54 0.8 1.4 1009.2 0.0000 0.0000
23:21 20.4 11.6 57 49 0.8 1.4 1009.2 0.0000 0.0000
23:30 20.3 11.5 57 52 0.8 1.4 1009.5 0.0000 0.0000
23:40 20.2 11.4 57 42 0.8 1.9 1009.6 0.0000 0.0000
23:50 19.9 11.4 58 29 0.8 1.9 1009.8 0.0000 0.0000

TAGESSTATISTIK

2020-08-03
TEMPERATUR
MITTEL
20.7
MAXIMUM
25.6
15:57
MINIMUM
15.8
06:54
LUFTDRUCK
MITTEL
1009.0
MAXIMUM
1010.9
00:05
MINIMUM
1006.8
17:08
TAUPUNKT
MITTEL
11.2
MAXIMUM
13.0
13:46
MINIMUM
9.2
06:03
FEUCHTIGKEIT
MITTEL
55
MAXIMUM
67
07:44
MINIMUM
40
16:58
WINDSTÄRKE
MITTEL
0.7
MAXIMUM
1.4
21:09
WINDBÖE
MITTEL
1.8
MAXIMUM
3.6
21:09
WINDRICHTUNG
VORHERRSCHENDE
NO
83.2%
N
0.0
NO
83.2
O
4.2
SO
0.0
S
0.0
SW
2.8
W
8.4
NW
1.4
NIEDERSCHLAG
REGEN STUNDE
0.0
REGEN TAG
0.0
TEMPERATUR (°C)
MINIMUM
15.8
MAXIMUM
25.6
MITTEL
20.7
LUFTDRUCK (hpa)
MINIMUM
1006.8
MAXIMUM
1010.9
MITTEL
1009.0
MESSGERÄT